Location: Chantarel
(45.1638°N, 1.7873°E)
Time: 07:19:27
(UTC+00:00)

BREEZE-M DEB (TANK) - Pass Details

Date: 03 March 2021
Orbit: 308 x 15404 km, 49.5° (Epoch: 10 April)

Event Time Altitude Azimuth Distance (km) Brightness Sun altitude
Rises 19:42:48 0° 289° (WNW) 2,116 6.8 -21.8°
Reaches altitude 10° 19:44:13 10° 296° (WNW) 1,441 5.5 -22.0°
Maximum altitude 19:46:52 49° 15° (NNE) 773 3.0 -22.5°
Enters shadow 19:47:19 46° 38° (NE) 853 3.0 -22.6°
